sat.trackr.live / text

‹ back to catalog

STARLINK-34729

NORAD 65364 · 2025-190P

PAYLOAD ACTIVE UNKNOWN

§ Identity

Operator
Country
US
Launch date
2025-08-28
Launch site
AFETR
Launch vehicle
Mass (kg)
RCS (m²)

Purposes: comms

External: N2YO · Heavens-Above · Gunter

§ Orbital elements

Epoch: 2026-09-20T12:00:21.295008Z

Period
93.85 min
Inclination
53.1596°
Eccentricity
0.0001180
Mean motion
15.34405501 rev/d
Perigee alt
461.9 km
Apogee alt
463.5 km
Semi-major
6,840.8 km
B*
5.5478e-4
RAAN
341.7430°
Arg perigee
87.1157°
Mean anomaly
272.9981°
Rev number
6,002

§ Raw data

STARLINK-347291 65364U 25190P   26263.50024647  .00018417  00000+0  55478-3 0  99902 65364  53.1596 341.7430 0001180  87.1157 272.9981 15.34405501 60020

JSON: /api/v1/satellites/65364 · /tle

For live sub-satellite position, see the globe view (requires WebGL).

§ Visibility from observer

Set your observer location to see the next 7 days of passes ≥ 10°. The values pass through the URL so the page stays shareable.

No JS? Fill the form by hand. The geolocation button needs JavaScript.